Location: ?????
(31.8092°N, 35.2590°E)
Time: 19:51:23
(UTC+00:00)

OBJECT-B - Pass Details

Date: 20 June 2021
Orbit: 414 x 423 km, 97.0° (Epoch: 05 June)

Event Time Altitude Azimuth Distance (km) Brightness Sun altitude
Exits shadow 17:33:32 - 170° (S) 1,867 3.6 -9.1°
Reaches altitude 10° 17:34:25 10° 171° (S) 1,486 3.1 -9.3°
Maximum altitude 17:37:36 83° 257° (WSW) 423 0.8 -9.8°
Drops below altitude 10° 17:40:47 10° 347° (NNW) 1,493 4.3 -10.4°
Sets 17:42:47 0° 349° (NNW) 2,359 5.4 -10.7°
